Weather reports worldwide

Advertisment
Romorantin, France (7247): temperature & dewpoint: 16.09.2018 23:00:00 - 22.09.2018 23:00:00 (CEST)Romorantin, France (7247): temperature 5cm: 16.09.2018 23:00:00 - 22.09.2018 23:00:00 (CEST)Romorantin, France (7247): temperature -20cm & temperature -100cm: 16.09.2018 23:00:00 - 22.09.2018 23:00:00 (CEST)Romorantin, France (7247): wind speed & gusts: 16.09.2018 23:00:00 - 22.09.2018 23:00:00 (CEST)Romorantin, France (7247): wind direction: 16.09.2018 23:00:00 - 22.09.2018 23:00:00 (CEST)Romorantin, France (7247): reduced air pressure: 16.09.2018 23:00:00 - 22.09.2018 23:00:00 (CEST)Romorantin, France (7247): visibility: 16.09.2018 23:00:00 - 22.09.2018 23:00:00 (CEST)Romorantin, France (7247): precipitation: 16.09.2018 23:00:00 - 22.09.2018 23:00:00 (CEST)
Date & Time tt [°C] td [°C] tt 5cm [°C] tt -20cm [°C] tt -100cm [°C] ff [km/h] ff [kn] fx [km/h] fx [kn] dd ppp [hPa] vv [km] rr [mm]
22.09.2018 23:00:00 20,4 12,4 19,9 18,2 19,6 17 9 35 19 WSW 1019,9 20 0,0
22.09.2018 22:00:00 20,6 8,2 19,8 18,2 19,6 17 9 37 20 SW 1019,6 20 0,0
22.09.2018 21:00:00 20,4 8,1 19,6 18,2 19,6 16 8 29 16 SW 1019,7 20 0,0
22.09.2018 20:00:00 20,2 7,2 19,6 18,1 19,7 13 7 28 15 SW 1019,4 20 0,0
22.09.2018 19:00:00 20,5 7,1 20,3 18,0 19,7 14 7 30 16 SW 1019,5 20 0,0
22.09.2018 18:00:00 20,7 5,9 21,3 17,9 19,7 16 9 30 16 SW 1020,0 20 0,0
22.09.2018 17:00:00 20,6 5,8 22,4 17,8 19,7 14 8 24 13 SW 1020,8 20 0,0
22.09.2018 16:00:00 20,1 5,7 22,7 17,7 19,7 14 8 25 13 SW 1021,5 20 0,0
22.09.2018 15:00:00 19,3 6,1 21,4 17,6 19,7 13 7 26 14 SSW 1022,5 20 0,0
22.09.2018 14:00:00 18,1 6,3 21,2 17,4 19,7 13 7 29 16 S 1023,1 20 0,0
22.09.2018 13:00:00 18,2 7,0 20,6 17,4 19,7 14 7 24 13 S 1023,4 20 0,0
22.09.2018 12:00:00 17,5 8,1 18,1 17,3 19,7 12 7 19 10 SE 1023,9 20 0,0
22.09.2018 11:00:00 14,8 7,8 16,9 17,4 19,7 8 5 16 9 SSE 1024,3 20 0,0
22.09.2018 10:00:00 12,3 8,4 9,2 17,4 19,7 2 1 7 4 SSE 1024,8 20 0,0
22.09.2018 09:00:00 7,9 6,8 6,0 17,6 19,7 0 0 2 1 N 1025,2 20 0,0
22.09.2018 08:00:00 5,8 4,8 4,6 17,7 19,7 0 0 0 0 N 1025,2 20 0,0
22.09.2018 07:00:00 5,3 4,1 4,0 17,9 19,8 0 0 4 2 N 1025,0 0,7 0,0
22.09.2018 06:00:00 5,4 4,2 4,1 18,0 19,8 0 0 4 2 N 1024,9 7 0,0
22.09.2018 05:00:00 5,4 4,2 4,3 18,2 19,7 0 0 2 1 N 1024,8 0,9 0,0
22.09.2018 04:00:00 5,6 4,2 4,1 18,4 19,8 0 0 3 1 N 1025,2 20 0,0
22.09.2018 03:00:00 6,0 4,8 3,5 18,6 19,8 2 1 4 2 S 1024,7 11 0,0
22.09.2018 02:00:00 5,9 4,7 3,6 18,8 19,8 0 0 5 3 N 1025,0 1,1 0,0
22.09.2018 01:00:00 6,2 4,8 3,7 19,0 19,8 0 0 4 2 N 1025,1 1,0 0,0
22.09.2018 00:00:00 6,3 4,5 5,0 19,1 19,8 2 1 3 2 S 1024,7 1,1 0,0
21.09.2018 23:00:00 8,3 6,8 5,4 19,3 19,8 0 0 3 2 N 1024,3 0,7 0,0
21.09.2018 22:00:00 8,9 7,0 7,0 19,4 19,8 0 0 3 2 N 1023,8 20 0,0
21.09.2018 21:00:00 10,1 7,5 8,5 19,5 19,7 3 2 8 4 SSW 1023,0 20 0,0
21.09.2018 20:00:00 14,1 7,2 11,5 19,6 19,8 5 3 14 8 WSW 1021,8 20 0,0
21.09.2018 19:00:00 16,3 7,2 16,1 19,6 19,7 6 4 19 10 W 1021,1 20 0,0
21.09.2018 18:00:00 17,1 6,3 17,9 19,6 19,8 12 6 27 14 W 1020,7 20 0,0
21.09.2018 17:00:00 17,4 7,2 18,9 19,6 19,8 15 8 41 22 W 1020,2 20 0,0
21.09.2018 16:00:00 17,4 6,9 19,7 19,6 19,8 17 9 34 19 W 1019,7 20 0,0
21.09.2018 15:00:00 17,6 7,0 20,2 19,6 19,8 18 10 34 19 WNW 1019,1 20 0,0
21.09.2018 14:00:00 17,7 9,1 19,9 19,6 19,8 16 9 30 16 W 1018,2 20 0,0
21.09.2018 13:00:00 16,5 9,4 16,4 19,6 19,8 18 10 33 18 W 1017,5 20 0,0
21.09.2018 12:00:00 15,0 11,4 14,4 19,8 19,8 9 5 18 10 W 1017,0 20 0,0
21.09.2018 11:00:00 13,3 10,8 12,5 19,8 19,8 8 5 47 25 W 1016,0 20 3,8
21.09.2018 10:00:00 13,4 10,0 12,6 19,9 19,8 25 13 48 26 NW 1014,7 7 4,9
21.09.2018 09:00:00 17,8 14,7 16,9 20,0 19,8 19 10 37 20 SSW 1012,8 15 0,6
21.09.2018 08:00:00 18,2 13,9 17,1 20,1 19,8 17 9 35 19 SSW 1012,7 20 0,0
21.09.2018 07:00:00 17,6 13,5 16,7 20,1 19,8 14 8 27 14 SSW 1012,6 20 0,0
21.09.2018 06:00:00 17,5 12,8 16,5 20,2 19,8 10 6 26 14 SW 1012,7 20 0,0
21.09.2018 05:00:00 17,5 12,4 12,2 20,3 19,8 13 7 23 12 SW 1012,6 20 0,0
21.09.2018 04:00:00 15,2 11,0 11,0 20,4 19,8 6 3 11 6 SSW 1013,0 20 0,0
21.09.2018 03:00:00 14,5 10,9 11,8 20,6 19,8 7 4 10 5 SSW 1013,2 20 0,0
21.09.2018 02:00:00 15,1 11,3 11,7 20,7 19,8 5 3 10 5 SSW 1013,6 20 0,0
21.09.2018 01:00:00 15,5 11,1 12,0 20,8 19,8 4 2 8 4 SSW 1013,5 20 0,0
21.09.2018 00:00:00 13,8 10,4 12,3 20,9 19,8 4 2 6 3 S 1013,6 20 0,0
20.09.2018 23:00:00 14,5 11,6 12,9 21,0 19,8 0 0 3 1 N 1014,1 20 0,0
20.09.2018 22:00:00 15,6 11,6 13,7 21,0 19,8 0 0 0 0 N 1014,3 20 0,0
20.09.2018 21:00:00 17,0 12,3 14,9 21,0 19,8 0 0 0 0 N 1014,3 20 0,0
20.09.2018 20:00:00 21,0 12,2 17,9 20,9 19,8 0 0 11 6 N 1014,4 19 0,0
20.09.2018 19:00:00 26,8 12,1 26,3 20,7 19,8 8 4 21 12 SW 1014,7 20 0,0
20.09.2018 18:00:00 27,9 11,0 30,0 20,5 19,8 11 6 23 12 SW 1015,1 20 0,0
20.09.2018 17:00:00 27,5 10,7 32,7 20,2 19,8 16 9 26 14 SSW 1015,9 20 0,0
20.09.2018 16:00:00 27,1 11,9 32,5 20,0 19,8 14 8 28 15 SSW 1016,9 20 0,0
20.09.2018 15:00:00 25,7 13,2 32,7 19,8 19,8 12 7 29 16 SSW 1017,9 20 0,0
20.09.2018 14:00:00 24,7 13,3 29,3 19,6 19,8 12 7 26 14 SSW 1018,7 20 0,0
20.09.2018 13:00:00 24,0 13,5 28,1 19,4 19,8 10 6 20 11 SW 1019,8 20 0,0
20.09.2018 12:00:00 22,2 13,8 23,4 19,4 19,8 9 5 22 12 SW 1020,7 19 0,0
20.09.2018 11:00:00 20,7 12,4 23,0 19,4 19,8 7 4 14 8 WSW 1021,1 20 0,0
20.09.2018 10:00:00 17,2 12,7 16,4 19,5 19,8 2 1 5 3 S 1021,1 20 0,0
20.09.2018 09:00:00 12,0 10,4 7,3 19,5 19,8 0 0 3 2 N 1021,1 20 0,0
20.09.2018 08:00:00 8,0 6,8 5,6 19,7 19,8 0 0 4 2 N 1021,4 0,7 0,2
20.09.2018 07:00:00 6,9 5,5 5,4 19,9 19,8 0 0 3 2 N 1021,2 0,3 0,0
20.09.2018 06:00:00 8,2 7,0 5,8 20,0 19,8 0 0 3 2 N 1021,5 8 0,0
20.09.2018 05:00:00 8,7 7,5 5,7 20,2 19,8 0 0 2 1 N 1021,7 0,3 0,0
20.09.2018 04:00:00 9,1 7,7 6,2 20,4 19,8 0 0 2 1 N 1021,5 0,3 0,0
20.09.2018 03:00:00 10,0 8,6 6,9 20,5 19,8 0 0 0 0 N 1021,5 1,3 0,0
20.09.2018 02:00:00 10,4 9,0 7,5 20,7 19,8 0 0 2 1 N 1021,4 0,3 0,0
20.09.2018 01:00:00 10,8 9,2 7,8 20,9 19,8 0 0 0 0 N 1021,6 0,2 0,0
20.09.2018 00:00:00 12,4 10,8 8,8 21,0 19,8 0 0 2 1 N 1021,4 6 0,0
19.09.2018 23:00:00 12,6 10,3 9,8 21,1 19,8 0 0 0 0 N 1021,3 9 0,0
19.09.2018 22:00:00 14,1 11,3 11,2 21,2 19,8 0 0 3 2 N 1021,1 20 0,0
19.09.2018 21:00:00 17,0 12,1 13,9 21,2 19,8 3 2 5 3 S 1020,5 20 0,0
19.09.2018 20:00:00 21,9 12,4 18,6 21,1 19,8 3 2 16 9 WSW 1019,9 20 0,0
19.09.2018 19:00:00 25,3 12,8 25,1 20,9 19,8 10 5 26 14 WSW 1019,7 20 0,0
19.09.2018 18:00:00 26,2 13,0 29,5 20,8 19,8 13 7 29 16 W 1019,5 20 0,0
19.09.2018 17:00:00 26,6 13,3 31,1 20,5 19,8 16 8 31 17 WSW 1019,7 20 0,0
19.09.2018 16:00:00 26,4 13,2 31,8 20,3 19,8 17 9 35 19 WSW 1020,0 20 0,0
19.09.2018 15:00:00 26,3 13,1 30,9 20,1 19,8 16 9 34 18 W 1020,4 20 0,0
19.09.2018 14:00:00 26,1 13,6 26,6 19,9 19,8 18 10 35 19 SW 1020,6 20 0,0
19.09.2018 13:00:00 24,3 14,1 28,6 19,8 19,8 18 10 33 18 SW 1020,8 20 0,0
19.09.2018 12:00:00 24,1 14,2 27,7 19,7 19,8 16 9 28 15 SSW 1020,9 20 0,0
19.09.2018 11:00:00 22,2 13,5 25,0 19,7 19,8 12 6 24 13 SSW 1021,0 20 0,0
19.09.2018 10:00:00 19,4 14,9 17,5 19,7 19,8 8 4 11 6 SSW 1020,7 20 0,0
19.09.2018 09:00:00 15,6 14,5 13,4 19,8 19,8 0 0 5 3 N 1020,6 17 0,0
19.09.2018 08:00:00 12,8 11,7 - 19,9 19,8 0 0 - - N 1020,5 18 -
19.09.2018 07:00:00 - - - - - - - - - - - - -
19.09.2018 06:00:00 - - - - - - - - - - - - -
19.09.2018 05:00:00 - - - - - - - - - - - - -
19.09.2018 04:00:00 - - - - - - - - - - - - -
19.09.2018 03:00:00 - - - - - - - - - - - - -
19.09.2018 02:00:00 - - - - - - - - - - - - -
19.09.2018 01:00:00 - - - - - - - - - - - - -
19.09.2018 00:00:00 - - - - - - - - - - - - -
18.09.2018 23:00:00 - - - - - - - - - - - - -
18.09.2018 22:00:00 - - - - - - - - - - - - -
18.09.2018 21:00:00 - - - - - - - - - - - - -
18.09.2018 20:00:00 - - - - - - - - - - - - -
18.09.2018 19:00:00 - - - - - - - - - - - - -
18.09.2018 18:00:00 - - - - - - - - - - - - -
18.09.2018 17:00:00 - - - - - - - - - - - - -
18.09.2018 16:00:00 - - - - - - - - - - - - -
18.09.2018 15:00:00 - - - - - - - - - - - - -
18.09.2018 14:00:00 - - - - - - - - - - - - -
18.09.2018 13:00:00 - - - - - - - - - - - - -
18.09.2018 12:00:00 - - - - - - - - - - - - -
18.09.2018 11:00:00 - - - - - - - - - - - - -
18.09.2018 10:00:00 - - - - - - - - - - - - -
18.09.2018 09:00:00 - - - - - - - - - - - - -
18.09.2018 08:00:00 - - - - - - - - - - - - -
18.09.2018 07:00:00 - - - - - - - - - - - - -
18.09.2018 06:00:00 - - - - - - - - - - - - -
18.09.2018 05:00:00 - - - - - - - - - - - - -
18.09.2018 04:00:00 - - - - - - - - - - - - -
18.09.2018 03:00:00 - - - - - - - - - - - - -
18.09.2018 02:00:00 - - - - - - - - - - - - -
18.09.2018 01:00:00 - - - - - - - - - - - - -
18.09.2018 00:00:00 - - - - - - - - - - - - -
17.09.2018 23:00:00 - - - - - - - - - - - - -
17.09.2018 22:00:00 - - - - - - - - - - - - -
17.09.2018 21:00:00 - - - - - - - - - - - - -
17.09.2018 20:00:00 - - - - - - - - - - - - -
17.09.2018 19:00:00 - - - - - - - - - - - - -
17.09.2018 18:00:00 - - - - - - - - - - - - -
17.09.2018 17:00:00 - - - - - - - - - - - - -
17.09.2018 16:00:00 - - - - - - - - - - - - -
17.09.2018 15:00:00 - - - - - - - - - - - - -
17.09.2018 14:00:00 - - - - - - - - - - - - -
17.09.2018 13:00:00 - - - - - - - - - - - - -
17.09.2018 12:00:00 - - - - - - - - - - - - -
17.09.2018 11:00:00 - - - - - - - - - - - - -
17.09.2018 10:00:00 - - - - - - - - - - - - -
17.09.2018 09:00:00 - - - - - - - - - - - - -
17.09.2018 08:00:00 5,7 4,8 2,0 19,1 19,9 3 2 5 3 E 1019,6 19 0,0
17.09.2018 07:00:00 4,6 3,6 2,3 19,3 19,9 0 0 3 1 N 1020,0 0,5 0,0
17.09.2018 06:00:00 5,3 4,4 2,6 19,5 19,9 0 0 4 2 N 1020,0 0,4 0,0
17.09.2018 05:00:00 6,5 5,6 3,0 19,7 19,9 2 1 4 2 NNE 1019,9 2,4 0,0
17.09.2018 04:00:00 5,4 4,2 3,1 19,8 19,9 0 0 2 1 N 1020,2 0,5 0,0
17.09.2018 03:00:00 7,8 6,7 4,6 20,0 19,9 0 0 3 2 N 1020,3 20 0,0
17.09.2018 02:00:00 7,6 5,6 5,9 20,1 19,9 0 0 9 5 N 1020,7 20 0,0
17.09.2018 01:00:00 8,8 7,4 6,1 20,3 19,9 0 0 5 3 N 1020,7 17 0,0
17.09.2018 00:00:00 9,7 8,3 6,6 20,5 19,9 0 0 2 1 N 1020,8 20 0,0
16.09.2018 23:00:00 10,6 7,3 7,8 20,6 20,0 0 0 4 2 N 1020,9 20 0,0

tt = temperature
td = dewpoint
tt 5cm = temperature 5cm
tt -20cm = temperature -20cm
tt -100cm = temperature -100cm
ff = wind speed
fx = gusts
dd = wind direction
ppp = reduced air pressure
vv = visibility
rr = precipitation

Next stations